Погода в Таёжном

Россия / Камчатский край     55°16′22″N   159°22′26″E
темп.,
°C
ветер,
м/с
пор.,
м/с
влажн.,
%
обл.,
%
осадки,
мм/ч
давл.,
гПа
погр.,
м
28 ноября, вс
вс2800:00−15ссв149311 0.1 1006135
03:00−17ссз11975 0.0 100733
06:00−19зсз11985 0.0 100810
09:00−21ююз119924 0.0 100814
12:00−16ююз11855 0.0 1008171
15:00−14ююз118020 0.0 1007284
18:00−18ююз11975 0.0 100811
21:00−20ю239912 0.0 100945
29 ноября, пн
пн2900:00−21ююз11985 0.0 101034
03:00−22ююз12975 0.0 101046
06:00−23ююз11985 0.0 101129
09:00−23ююз119723 0.0 101226
12:00−17ю1280100 0.0 1012125
15:00−14ю1173100 0.0 1011143
18:00−15ссз0093100 0.0 101211
21:00−15зюз0092100 0.0 101214
30 ноября, вт
вт3000:00−15юз0092100 0.0 101214
03:00−15юз1194100 0.0 101113
06:00−15с0096100 0.0 101012
09:00−16зюз0097100 0.0 101011
12:00−11юз1182100 0.0 1008118
15:00−9ююз2382100 0.0 1008247
18:00−15ююв119836 0.0 10109
21:00−16ю249714 0.0 101369
1 декабря, ср
ср100:00−18сз009814 0.0 101510
03:00−19ююв119920 0.0 10189
06:00−19в11995 0.0 102011
09:00−19ю119910 0.0 102019
12:00−12ю14825 0.0 1021184
15:00−7ю1681100 0.0 1021329
18:00−13с1197100 0.0 102232
21:00−11с2391100 0.0 102078
2 декабря, чт
чт200:00−10с2393100 0.2 1018112
03:00−9ссв2595100 1.4 1014166
06:00−9с2695100 1.9 1010237
09:00−9с3894100 0.4 1004308
12:00−8с3794100 1.7 998269
15:00−7с2695100 3.1 992232
18:00−6св2696100 3.9 983261
21:00−5юз4796100 2.0 981230